sat.trackr.live / text

‹ back to catalog

STARLINK-33865

NORAD 64247 · 2025-119Q

PAYLOAD ACTIVE UNKNOWN

§ Identity

Operator
Country
US
Launch date
2025-06-03
Launch site
AFETR
Launch vehicle
Mass (kg)
RCS (m²)

Purposes: comms

External: N2YO · Heavens-Above · Gunter

§ Orbital elements

Epoch: 2026-05-24T22:28:08.847264Z

Period
94.27 min
Inclination
42.9995°
Eccentricity
0.0001533
Mean motion
15.27572790 rev/d
Perigee alt
482.0 km
Apogee alt
484.1 km
Semi-major
6,861.2 km
B*
5.3067e-4
RAAN
236.1540°
Arg perigee
288.1659°
Mean anomaly
71.9026°
Rev number
5,580

§ Raw data

STARLINK-338651 64247U 25119Q   26144.93621351  .00014366  00000+0  53067-3 0  99912 64247  42.9995 236.1540 0001533 288.1659  71.9026 15.27572790 55803

JSON: /api/v1/satellites/64247 · /tle

For live sub-satellite position, see the globe view (requires WebGL).

§ Visibility from observer

Set your observer location to see the next 7 days of passes ≥ 10°. The values pass through the URL so the page stays shareable.

No JS? Fill the form by hand. The geolocation button needs JavaScript.